#timestamp,LO_Frequency,Hit,StdDev 
1538643615.6,286047002.1,N
1538643635.5,286047003.5,N
1538643655.3,286047006.8,Y
1538643675.1,286047005.3,P
1538643695.9,286047002.3,N
1538643715.7,286047002.7,N
1538643735.6,286046998.8,N
1538643755.4,286047000.6,N
1538643775.2,286046998.5,N
1538643795.1,286046999.1,N
1538643815.5,286046998.9,N
1538643835.3,286047000.5,N
1538643855.1,286046998.6,N
1538643875.9,286046998.5,N
1538643895.7,286046999.0,N
1538643915.6,286046997.2,N
1538643935.4,286046997.0,N
1538643955.2,286046999.6,N
1538643975.1,286046995.0,N
1538643976.0,286046995.0,N
1538643995.8,286046993.3,N
1538644015.7,286046993.8,N
1538644035.5,286046994.2,N
1538644055.3,286046997.3,N
1538644075.2,286046998.7,N
1538644095.0,286046999.4,N
1538644095.9,286046999.4,N
1538644115.7,286046996.9,N
1538644135.6,286046997.0,N
1538644155.4,286046996.9,N
1538644175.3,286046996.9,N
1538644195.1,286047001.1,N
1538644196.0,286047001.1,N
1538644215.8,286046999.1,N
1538644235.7,286046999.6,N
1538644255.5,286046998.1,N
1538644275.3,286047000.4,N
1538644295.2,286046998.9,N
1538644315.0,286046999.8,N
1538644315.9,286046999.8,N
1538644335.8,286047004.3,N
1538644355.6,286047002.0,N
1538644375.4,286047000.2,N
1538644395.3,286047006.0,N
1538644415.1,286047004.1,N
1538644435.8,286047005.9,N
1538644455.7,286047005.6,N
1538644475.5,286047003.2,N
1538644495.3,286047003.9,N
1538644515.2,286047000.2,N
1538644535.0,286047000.6,N
1538644535.9,286047000.6,N
1538644555.8,286046998.8,N
1538644575.6,286046996.5,N
1538644595.4,286046996.7,N
1538644615.3,286046999.6,N
1538644635.1,286046998.4,N
1538644655.8,286046998.4,N
1538644675.7,286047000.6,N
1538644695.5,286047001.1,N
1538644715.4,286046998.8,N
1538644735.2,286047000.9,N
1538644755.0,286047000.8,N
1538644755.9,286047000.8,N
1538644775.8,286047000.5,N
1538644795.6,286047000.9,N
1538644815.4,286046998.5,N
1538644835.3,286046998.2,N
1538644855.1,286046999.4,N
1538644875.9,286046999.2,N
1538644895.7,286046999.2,N
1538644915.5,286047002.4,N
1538644935.4,286047001.7,N
1538644955.2,286047003.3,N
1538644975.0,286047004.0,N
1538644975.9,286047004.0,N
1538644995.8,286047002.7,N
1538645015.6,286047001.5,N
1538645035.4,286047004.1,N
1538645055.3,286047000.5,N
1538645075.1,286046998.2,N
1538645095.9,286046999.7,N
1538645115.7,286047000.6,N
1538645135.5,286047002.4,N
1538645155.4,286047000.0,N
1538645175.2,286047002.8,N
1538645195.0,286047000.9,N
1538645195.9,286047000.9,N
1538645215.8,286047000.2,N
1538645235.7,286047004.7,N
1538645255.6,286047006.4,Y
1538645275.4,286047007.4,P
1538645295.3,286047005.8,N
1538645315.1,286047003.3,N
1538645316.0,286047003.3,N
1538645335.8,286047002.0,N
1538645355.7,286047001.6,N
1538645375.5,286047002.1,N
1538645395.3,286047000.8,N
1538645415.2,286047001.6,N
1538645435.0,286047004.3,N
1538645435.9,286047004.3,N
1538645455.8,286047000.1,N
1538645475.6,286047002.8,N
1538645495.4,286047000.4,N
1538645515.3,286046999.7,N
1538645535.1,286047000.4,N
1538645555.8,286046998.7,N
1538645575.7,286046999.6,N
1538645595.5,286046997.0,N
1538645615.3,286046998.3,N
1538645635.2,286046996.8,N
1538645655.0,286046999.5,N
1538645655.9,286046999.5,N
1538645675.8,286046999.3,N
1538645695.6,286046998.1,N
1538645715.4,286046998.7,N
1538645735.3,286047004.4,N
1538645755.1,286046999.8,N
1538645775.9,286047002.6,N
1538645795.7,286047001.2,N
1538645815.5,286046999.9,N
1538645835.4,286047000.7,N
1538645855.2,286047000.4,N
1538645875.0,286047001.0,N
1538645875.9,286047001.0,N
1538645895.8,286046999.9,N
1538645915.6,286047001.2,N
1538645935.5,286046998.7,N
1538645955.3,286046997.2,N
1538645975.1,286046997.1,N
1538645995.9,286046999.5,N
1538646015.7,286046996.6,N
1538646035.5,286046999.5,N
1538646055.4,286047001.1,N
1538646075.2,286047001.8,N
1538646095.0,286046998.4,N
1538646096.0,286046998.4,N
1538646115.8,286046999.3,N
1538646135.6,286046996.6,N
1538646155.5,286046998.2,N
1538646175.3,286047000.2,N
1538646195.1,286047003.7,N
1538646215.9,286047002.9,N
1538646235.7,286047003.9,N
1538646255.5,286047011.9,Y
1538646275.4,286047006.0,P
1538646295.2,286047005.4,N
1538646315.1,286047003.3,N
1538646316.0,286047003.3,N
1538646335.8,286047003.9,N
1538646355.6,286047000.3,N
1538646375.5,286047000.9,N
1538646395.3,286047000.2,N
1538646415.1,286047000.5,N
1538646435.9,286046999.7,N
1538646455.7,286047001.1,N
1538646475.6,286046998.1,N
1538646495.4,286047000.1,N
1538646515.2,286047002.3,N
1538646535.1,286047003.7,N
1538646536.0,286047003.7,N
1538646555.8,286047002.8,N
1538646575.6,286047003.1,N
1538646595.5,286047000.0,N
1538646615.3,286047001.5,N
1538646635.2,286047003.2,N
1538646655.9,286047002.0,N
1538646675.7,286047003.8,N
1538646695.6,286047002.7,N
1538646715.4,286047005.9,Y
1538646735.2,286046999.8,P
1538646755.1,286047002.6,N
1538646756.0,286047002.6,N
1538646775.8,286047003.1,N
1538646795.7,286047000.5,N
1538646815.5,286047000.0,N
1538646835.3,286046998.1,N
1538646855.2,286047002.2,N
1538646875.9,286047005.0,Y
1538646895.7,286047002.8,P
1538646915.6,286046999.4,N
1538646935.4,286046999.1,N
1538646955.2,286046998.6,N
1538646975.1,286047000.8,N
1538646976.0,286047000.8,N
1538646995.8,286047000.4,N
1538647015.7,286046998.5,N
1538647035.5,286046998.8,N
1538647055.3,286046997.0,N
1538647075.2,286046996.7,N
1538647095.0,286046995.0,N
1538647095.9,286046995.0,N
1538647115.7,286046995.0,N
1538647135.6,286046996.9,N
1538647155.4,286046997.8,N
1538647175.3,286046995.0,N
1538647195.1,286046998.0,N
1538647196.0,286046998.0,N
